Date String (YYYY-MM-DD hh:mm:ss) UTC,Instrument flags,absolute air pressure of the measurement (hPa),sample flow rate (lpm),inlet stack bypass flow (lpm),air temperature of the measurement (°C),ambient temperature measured by the external sensor (°C),aerosol sample conditioner tube jacket temperature (°C),OPC LED temperature (°C),internal box temperature (°C),relative humidity of the measurement (%),span deviation,mass concentration of particles derived from Lorenz-Mie calculation of OPC scattering (μg/m³),mass concentration of particles derived from Lorenz-Mie calculation of OPC scattering (μg/m³),mass concentration of particles derived from Lorenz-Mie calculation of OPC scattering (μg/m³)
DateTimeUTC,F1_M11,P_M11,Q1_M11,Q2_M11,T1_M11,T2_M11,T3_M11,T4_M11,T5_M11,U1_M11,ZSPAN_M11,X0_M11,X2_M11,X1_M11
2024-04-11 14:00:00,SystemResetWarning,0833.0,4.99,000.00,023.4,022.7,000.0,032.0,025.3,015.4,0000.0,0006.43,0002.45,0001.72
2024-04-11 14:01:00,SystemResetWarning,0833.0,5.00,000.00,023.4,022.7,000.0,032.0,025.2,015.4,0000.0,0006.38,0002.43,0001.74
2024-04-11 14:02:00,SystemResetWarning,0833.0,5.02,000.00,023.4,022.7,000.0,032.0,025.2,015.3,0000.0,0006.29,0002.39,0001.74
2024-04-11 14:03:00,SystemResetWarning,0833.0,5.00,000.00,023.4,022.7,000.0,031.9,025.2,015.3,0000.0,0006.43,0002.43,0001.76
2024-04-11 14:04:00,SystemResetWarning,0833.0,5.00,000.00,023.4,022.7,000.0,031.9,025.2,015.6,0000.0,0006.54,0002.46,0001.79
2024-04-11 14:05:00,SystemResetWarning,0833.1,5.00,000.00,023.4,022.7,000.0,031.9,025.2,015.6,0000.0,0005.84,0002.47,0001.81
2024-04-11 14:06:00,SystemResetWarning,0833.1,5.00,000.00,023.4,022.7,000.0,031.9,025.2,015.6,0000.0,0006.29,0002.52,0001.84
2024-04-11 14:07:00,SystemResetWarning,0833.0,5.00,000.00,023.4,022.7,000.0,031.9,025.2,015.9,0000.0,0006.48,0002.53,0001.85
2024-04-11 14:08:00,SystemResetWarning,0833.1,4.99,000.00,023.4,022.7,000.0,031.9,025.2,015.8,0000.0,0006.51,0002.49,0001.85
2024-04-11 14:09:00,SystemResetWarning,0833.0,5.00,000.00,023.4,022.7,000.0,031.9,025.2,015.9,0000.0,0006.77,0002.51,0001.88
2024-04-11 14:10:00,SystemResetWarning,0833.3,5.00,000.00,023.4,022.7,000.0,031.9,025.2,015.9,0000.0,0007.29,0002.58,0001.91
2024-04-11 14:11:00,SystemResetWarning,0833.2,5.01,000.00,023.4,022.7,000.0,031.9,025.2,016.0,0000.0,0007.45,0002.65,0001.93
2024-04-11 14:12:00,SystemResetWarning,0833.0,5.01,000.00,023.4,022.7,000.0,031.9,025.2,015.9,0000.0,0007.44,0002.66,0001.95
2024-04-11 14:13:00,SystemResetWarning,0833.0,5.00,000.00,023.4,022.7,000.0,031.9,025.2,015.9,0000.0,0007.71,0002.75,0001.97
2024-04-11 14:14:00,SystemResetWarning,0833.1,5.00,000.00,023.4,022.6,000.0,031.9,025.2,016.1,0000.0,0007.82,0002.82,0002.00
2024-04-11 14:15:00,SystemResetWarning,0833.3,4.99,000.00,023.4,022.6,000.0,031.9,025.2,016.0,0000.0,0007.81,0002.87,0002.02
2024-04-11 14:16:00,SystemResetWarning,0833.0,4.99,000.00,023.4,022.6,000.0,031.9,025.2,016.2,0000.0,0008.16,0002.96,0002.04
2024-04-11 14:17:00,SystemResetWarning,0832.9,5.01,000.00,023.4,022.6,000.0,031.9,025.2,016.2,0000.0,0008.32,0002.94,0002.05
2024-04-11 14:18:00,SystemResetWarning,0833.0,5.00,000.00,023.4,022.6,000.0,031.9,025.2,016.2,0000.0,0008.98,0002.97,0002.06
2024-04-11 14:19:00,SystemResetWarning,0833.0,5.01,000.00,023.4,022.6,000.0,031.9,025.2,016.3,0000.0,0009.04,0003.08,0002.09
2024-04-11 14:20:00,SystemResetWarning,0833.0,5.00,000.00,023.4,022.6,000.0,031.9,025.2,016.5,0000.0,0008.70,0003.09,0002.09
2024-04-11 14:21:00,SystemResetWarning,0833.0,5.00,000.00,023.4,022.7,000.0,031.9,025.2,016.5,0000.0,0008.84,0003.09,0002.09
2024-04-11 14:22:00,SystemResetWarning,0833.0,5.00,000.00,023.4,022.7,000.0,031.9,025.2,016.6,0000.0,0009.02,0003.07,0002.10
2024-04-11 14:23:00,SystemResetWarning,0833.0,4.99,000.00,023.4,022.7,000.0,031.9,025.2,016.5,0000.0,0009.13,0003.11,0002.12
2024-04-11 14:24:00,SystemResetWarning,0833.0,4.99,000.00,023.4,022.7,000.0,031.9,025.2,016.5,0000.0,0008.96,0003.07,0002.14
2024-04-11 14:25:00,SystemResetWarning,0833.1,4.99,000.00,023.4,022.7,000.0,031.9,025.2,016.5,0000.0,0008.85,0003.04,0002.16
2024-04-11 14:26:00,SystemResetWarning,0833.0,5.00,000.00,023.4,022.7,000.0,031.9,025.2,016.3,0000.0,0009.30,0003.10,0002.17
2024-04-11 14:27:00,SystemResetWarning,0832.9,5.01,000.00,023.4,022.7,000.0,031.9,025.2,016.3,0000.0,0009.54,0003.07,0002.16
2024-04-11 14:28:00,SystemResetWarning,0833.0,5.01,000.00,023.4,022.7,000.0,031.9,025.2,016.4,0000.0,0009.94,0003.02,0002.15
2024-04-11 14:29:00,SystemResetWarning,0833.0,5.00,000.00,023.4,022.7,000.0,031.9,025.2,016.7,0000.0,0009.89,0003.02,0002.15
2024-04-11 14:30:00,SystemResetWarning,0832.9,5.00,000.00,023.4,022.7,000.0,031.9,025.2,016.5,0000.0,0010.02,0002.96,0002.17
2024-04-11 14:31:00,SystemResetWarning,0833.0,4.99,000.00,023.4,022.7,000.0,031.9,025.2,016.7,0000.0,0011.48,0003.00,0002.19
2024-04-11 14:32:00,SystemResetWarning,0833.0,4.99,000.00,023.4,022.6,000.0,031.9,025.2,016.5,0000.0,0011.46,0003.00,0002.21
2024-04-11 14:33:00,SystemResetWarning,0833.1,4.99,000.00,023.4,022.6,000.0,031.9,025.2,016.5,0000.0,0010.88,0003.04,0002.25
2024-04-11 14:34:00,SystemResetWarning,0833.4,5.01,000.00,023.4,022.7,000.0,031.9,025.2,016.6,0000.0,0011.18,0003.10,0002.29
2024-04-11 14:35:00,SystemResetWarning,0833.5,5.01,000.00,023.4,022.7,000.0,031.9,025.2,016.5,0000.0,0011.52,0003.14,0002.31
2024-04-11 14:36:00,SystemResetWarning,0833.0,4.99,000.00,023.4,022.7,000.0,031.9,025.2,016.5,0000.0,0011.75,0003.18,0002.35
2024-04-11 14:37:00,SystemResetWarning,0833.0,4.99,000.00,023.4,022.7,000.0,031.9,025.2,016.6,0000.0,0011.83,0003.19,0002.39
2024-04-11 14:38:00,SystemResetWarning,0832.9,5.01,000.00,023.4,022.7,000.0,031.9,025.2,016.6,0000.0,0011.77,0003.27,0002.46
2024-04-11 14:39:00,SystemResetWarning,0832.9,5.01,000.00,023.4,022.6,000.0,031.9,025.2,016.6,0000.0,0011.42,0003.37,0002.54
2024-04-11 14:40:00,SystemResetWarning,0832.9,4.99,000.00,023.4,022.6,000.0,031.9,025.2,016.9,0000.0,0010.64,0003.46,0002.63
2024-04-11 14:41:00,SystemResetWarning,0832.9,4.99,000.00,023.3,022.6,000.0,031.9,025.2,016.9,0000.0,0010.75,0003.49,0002.68
2024-04-11 14:42:00,SystemResetWarning,0833.1,5.00,000.00,023.3,022.6,000.0,031.9,025.2,016.8,0000.0,0010.25,0003.53,0002.72
2024-04-11 14:43:00,SystemResetWarning,0833.1,4.99,000.00,023.3,022.6,000.0,031.9,025.1,016.8,0000.0,0010.17,0003.57,0002.76
2024-04-11 14:44:00,SystemResetWarning,0833.5,5.01,000.00,023.3,022.5,000.0,031.9,025.1,016.8,0000.0,0010.31,0003.62,0002.78
2024-04-11 14:45:00,SystemResetWarning,0833.3,5.01,000.00,023.3,022.5,000.0,031.9,025.1,016.8,0000.0,0010.16,0003.63,0002.79
2024-04-11 14:46:00,SystemResetWarning,0833.4,5.00,000.00,023.3,022.5,000.0,031.8,025.1,016.9,0000.0,0009.93,0003.68,0002.82
2024-04-11 14:47:00,SystemResetWarning,0833.3,4.98,000.00,023.3,022.5,000.0,031.8,025.1,016.9,0000.0,0010.04,0003.69,0002.83
2024-04-11 14:48:00,SystemResetWarning,0833.4,5.00,000.00,023.3,022.5,000.0,031.8,025.1,017.0,0000.0,0010.39,0003.69,0002.81
2024-04-11 14:49:00,SystemResetWarning,0833.2,5.01,000.00,023.3,022.6,000.0,031.8,025.1,016.9,0000.0,0009.94,0003.65,0002.80
2024-04-11 14:50:00,SystemResetWarning,0833.1,5.00,000.00,023.3,022.6,000.0,031.8,025.1,016.9,0000.0,0010.27,0003.59,0002.80
2024-04-11 14:51:00,SystemResetWarning,0833.1,5.00,000.00,023.3,022.6,000.0,031.8,025.1,017.1,0000.0,0010.61,0003.54,0002.78
2024-04-11 14:52:00,SystemResetWarning,0833.0,4.99,000.00,023.3,022.6,000.0,031.8,025.1,016.8,0000.0,0010.44,0003.51,0002.76
2024-04-11 14:53:00,SystemResetWarning,0832.9,5.00,000.00,023.3,022.6,000.0,031.8,025.2,017.0,0000.0,0009.68,0003.47,0002.75
2024-04-11 14:54:00,SystemResetWarning,0832.9,5.00,000.00,023.3,022.6,000.0,031.8,025.1,017.1,0000.0,0009.06,0003.45,0002.74
2024-04-11 14:55:00,SystemResetWarning,0832.8,4.99,000.00,023.3,022.7,000.0,031.8,025.2,016.9,0000.0,0009.49,0003.45,0002.72
2024-04-11 14:56:00,SystemResetWarning,0832.8,5.00,000.00,023.3,022.7,000.0,031.8,025.2,016.8,0000.0,0009.77,0003.42,0002.71
2024-04-11 14:57:00,SystemResetWarning,0832.8,5.00,000.00,023.3,022.7,000.0,031.8,025.2,016.8,0000.0,0010.60,0003.39,0002.70
2024-04-11 14:58:00,SystemResetWarning,0832.8,5.00,000.00,023.4,022.7,000.0,031.8,025.2,016.7,0000.0,0010.62,0003.33,0002.67
2024-04-11 14:59:00,SystemResetWarning,0833.2,4.99,000.00,023.4,022.7,000.0,031.8,025.2,016.8,0000.0,0010.04,0003.29,0002.66
